Find Orbcomm FM117

NORAD ID: 41188 Int'l Des: 2015-081 Owner: ORBC Country: US Constellation: orbcomm operational
LEOCIRCULAR

Live Position

Loading 3D Globe...

About Orbcomm FM117

Description loading...

Upcoming Passes

Passes for default location (London). Set your location on the main map for personalized predictions.

Altitude History

Loading altitude history...

Two-Line Element Set

1 41188U 15081K 26107.16104203 .00000211 00000-0 81052-4 0 9994
2 41188 47.0000 109.3586 0004118 283.0378 77.0048 14.58801885551210
Epoch: Apr 17, 2026 • Age: 15 hours

Current Status

Altitude 704.3 km
Velocity 7.51 km/s
Sub-Earth Point 47.10°N, 61.16°E
Launch Date Dec 22, 2015
Age 10.3 years
Type other

Technical Details

Classification Payload
Mass 172.00 kg
Dry Mass 158.00 kg
Total Mass 172.00 kg
Length 1.00 m
Diameter 0.50 m
Span 13.00 m
Shape Box+pan+ant
Manufacturer SNVL
Bus Type SN-100A
Phase Status In Orbit
Owner/State ORBC/US

Most Searched